Orbital Elements at Epoch 2459000.5 (2020-May-31.0) TDB
Reference: JPL 13 (heliocentric ecliptic J2000)
Element | Value | Uncertainty (1-sigma) | Units |
e | .1702122187746037 | 7.8082e-08 | |
a | 2.487699034170145 | 1.5431e-08 | au |
q | 2.064262261920606 | 1.8979e-07 | au |
i | 8.80939153700883 | 7.0882e-06 | deg |
node | 69.14856947206893 | 2.9416e-05 | deg |
peri | .9204255109183548 | 3.2806e-05 | deg |
M | 160.4688200941524 | 1.8392e-05 | deg |
tp | 2458361.672884599799 (2018-Aug-31.17288460) | 6.9484e-05 | TDB |
period | 1433.161665980573 3.92 | 1.3335e-05 3.651e-08 | d yr |
n | .2511928755460306 | 2.3372e-09 | deg/d |
Q | 2.911135806419684 | 1.8058e-08 | au |
|
| | Orbit Determination Parameters
Additional Information
|